Weather History for Roswell, NM

Change the Weather History Date:

Wednesday, March 27, 2013

  Actual Average Record
Temperature  
Mean Temperature 60 °F 55 °F  
Max Temperature 81 °F 72 °F 95 °F (1971)
Min Temperature 39 °F 39 °F 16 °F (1931)
Degree Days  
Heating Degree Days 5 10  
Month to date heating degree days 310 351  
Since 1 July heating degree days 2764 3058  
Cooling Degree Days 0 0  
Month to date cooling degree days 2 0  
Year to date cooling degree days 2 0  
Growing Degree Days 10 (Base 50)    
Moisture  
Dew Point 19 °F    
Average Humidity 27    
Maximum Humidity 45    
Minimum Humidity 9    
Precipitation  
Precipitation 0.00 in 0.01 in 0.76 in (1930)
Month to date precipitation T 0.44  
Year to date precipitation 0.44 1.24  
Sea Level Pressure  
Sea Level Pressure 29.91 in    
Wind  
Wind Speed 9 mph (South)    
Max Wind Speed 24 mph    
Max Gust Speed 30 mph    
Visibility 10 miles    
Events      
T = Trace of Precipitation, MM = Missing Value Source: NWS Daily Summary

Daily Weather History Graph

Daily Weather History Graph

Search for Another Location

Airport:

Trip Planner

Search our weather history database for the weather conditions in past years. The results will help you decide how hot, cold, wet, or windy it might be!

Date:

Astronomy

Mar. 27, 2013 Rise Set
Actual Time 6:52 AM MDT 7:15 PM MDT
Civil Twilight 6:27 AM MDT 7:39 PM MDT
Nautical Twilight 5:58 AM MDT 8:09 PM MDT
Astronomical Twilight 5:28 AM MDT 8:38 PM MDT
Moon 7:57 PM MDT (3/27) 6:47 AM MDT (3/27)
Length of Visible Light 13h 12m
Length of Day
12h 23m
Full, 100% of the Moon is Illuminated
Mar 27
Full
Apr 2
Last Quarter
Apr 10
New
Apr 18
First Quarter
Apr 25
Full

Hourly Weather History & Observations

Time (MDT) Temp. Windchill Dew Point Humidity Pressure Visibility Wind Dir Wind Speed Gust Speed Precip Events Conditions
12:51 AM 45.0 °F 40.6 °F 14.0 °F 29% 29.98 in 10.0 mi South 8.1 mph - N/A   Clear
1:51 AM 42.1 °F 35.7 °F 15.1 °F 34% 29.96 in 10.0 mi South 11.5 mph - N/A   Clear
2:51 AM 43.0 °F 36.8 °F 17.1 °F 35% 29.94 in 10.0 mi South 11.5 mph - N/A   Clear
3:51 AM 42.1 °F 34.9 °F 18.0 °F 38% 29.93 in 10.0 mi South 13.8 mph - N/A   Clear
4:51 AM 42.1 °F 35.2 °F 18.0 °F 38% 29.92 in 10.0 mi South 12.7 mph - N/A   Clear
5:51 AM 41.0 °F 33.1 °F 19.9 °F 43% 29.94 in 10.0 mi South 15.0 mph - N/A   Clear
6:51 AM 41.0 °F 38.0 °F 21.0 °F 45% 29.96 in 10.0 mi South 4.6 mph - N/A   Clear
7:51 AM 42.1 °F - 19.9 °F 41% 29.99 in 10.0 mi Calm Calm - N/A   Clear
8:51 AM 46.9 °F - 21.0 °F 36% 29.99 in 10.0 mi NW 3.5 mph - N/A   Clear
9:51 AM 52.0 °F - 24.1 °F 34% 29.99 in 10.0 mi NNE 4.6 mph - N/A   Clear
10:51 AM 59.0 °F - 25.0 °F 27% 29.96 in 10.0 mi ENE 4.6 mph - N/A   Clear
11:29 AM 64.4 °F - 28.4 °F 26% 30.05 in 10.0 mi North 5.8 mph - N/A   Clear
11:51 AM 68.0 °F - 26.1 °F 21% 29.93 in 10.0 mi North 6.9 mph - N/A   Clear
12:39 PM 71.6 °F - 19.4 °F 14% 30.03 in 10.0 mi South 8.1 mph - N/A   Clear
12:51 PM 72.0 °F - 19.9 °F 14% 29.91 in 10.0 mi South 6.9 mph - N/A   Clear
1:51 PM 75.0 °F - 19.9 °F 13% 29.88 in 10.0 mi Variable 5.8 mph - N/A   Clear
2:51 PM 78.1 °F - 19.9 °F 11% 29.84 in 10.0 mi East 9.2 mph - N/A   Clear
3:51 PM 79.0 °F - 18.0 °F 10% 29.81 in 10.0 mi East 11.5 mph - N/A   Clear
4:24 PM 78.8 °F - 15.8 °F 9% 29.93 in 10.0 mi South 20.7 mph 29.9 mph N/A   Clear
4:51 PM 78.1 °F - 15.1 °F 9% 29.81 in 10.0 mi SSE 16.1 mph 24.2 mph N/A   Clear
5:51 PM 77.0 °F - 19.9 °F 12% 29.81 in 10.0 mi East 9.2 mph - N/A   Clear
6:51 PM 73.9 °F - 21.0 °F 14% 29.82 in 10.0 mi NW 3.5 mph - N/A   Clear
7:51 PM 64.9 °F - 14.0 °F 14% 29.86 in 10.0 mi SW 6.9 mph - N/A   Clear
8:51 PM 70.0 °F - 10.0 °F 10% 29.86 in 10.0 mi West 11.5 mph - N/A   Clear
9:51 PM 66.0 °F - 12.0 °F 12% 29.88 in 10.0 mi West 11.5 mph - N/A   Clear
10:51 PM 62.1 °F - 12.9 °F 15% 29.88 in 10.0 mi WSW 9.2 mph - N/A   Clear
11:51 PM 57.9 °F - 12.0 °F 16% 29.87 in 10.0 mi WSW 4.6 mph - N/A   Clear